Weather in Sevastopol

Kazakhstan     53°08′09″N   65°47′35″E
temp.,
°C
wind,
m/s
gust,
m/s
humid.,
%
clouds,
%
prec.,
mm/h
press.,
hPa
HPBL,
m
28 june, tue
tue2800:00+10wsw33845 0.0 101037
03:00+10sw47800 0.0 1009109
06:00+10ssw4108210 0.0 1008181
09:00+15ssw71167100 0.0 1005537
12:00+18sw81162100 0.0 10031015
15:00+15wnw6879100 0.2 1003824
18:00+13nnw6788100 0.3 1004492
21:00+12nnw6107899 0.1 1005582
29 june, wed
wed2900:00+9nw51082100 0.1 1006324
03:00+7nw510785 0.0 1005418
06:00+5wnw410815 0.0 1006360
09:00+8nw797274 0.0 10051004
12:00+11wnw7956100 0.1 10051660
15:00+11wnw91154100 0.1 10051715
18:00+9wnw81179100 0.1 10061067
21:00+9wnw81280100 0.0 10061033
30 june, thu
thu3000:00+8wnw6128524 0.0 1007650
03:00+6wnw512945 0.0 1007257
06:00+6w48945 0.0 1007155
09:00+12w45710 0.0 1007367
12:00+17w44472 0.0 10071407
15:00+19w3542100 0.0 10062384
18:00+19wsw564733 0.0 10071643
21:00+15wsw226163 0.0 100739
1 july, fri
fri100:00+12wnw117350 0.0 100810
03:00+13ne2271100 0.0 100834
06:00+13ssw0072100 0.0 100911
09:00+13ne3478100 0.0 1010195
12:00+17e216160 0.0 1010597
15:00+21nnw124299 0.0 10092493
18:00+18e1256100 0.0 1010118
21:00+16nne336366 0.0 101052
2 july, sat
sat200:00+14e346969 0.0 101087
03:00+13ene357358 0.0 1009116
06:00+12ene347687 0.0 100978
09:00+16ene456148 0.0 1008404
12:00+19ene44515 0.1 10071423
15:00+20nne445141 1.8 10051766
18:00+19nne675368 2.1 10041160
21:00+16ne487399 0.0 1004338